SCP
0 0 0 0 0 -0 0 0 0 0 0 0 0 0 0 0 0 0 0 0 0 0 0 0 0 0 0 0 0 0 0 0 0 1 2 1 0 0 0 0 0 1 1 1
-0 -0 -0 0 0 0 -0 0 0 0 0 0 0 0 0 0 0 0 0 0 0 0 0 0 0 0 0 0 0 0 0 0 0 1 0 1 0 1 0 0 0 1 1 1
-0 -0 -0 0 0 0 -0 0 0 0 0 0 0 0 0 0 0 0 0 0 0 0 0 0 0 0 0 0 0 0 0 0 0 0 0 0 0 0 0 1 0 1 1 1
-0 -0 -0 -0 -0 0 0 0 0 0 0 0 0 0 0 0 0 0 0 0 0 0 0 0 0 0 0 0 0 0 0 0 0 0 0 0 0 0 0 0 0 1 1 1
0 0 -0 -0 0 -0 0 -0 0 0 0 0 0 0 0 0 0 0 0 0 0 0 0 0 0 0 0 0 0 0 0 0 -0 0 0 0 0 0 0 0 0 1 1 1
0 0 0 0 0 0 -0 -0 0 0 0 0 0 -0 -0 0 0 0 0 0 0 0 0 0 0 0 -0 -0 0 -0 0 0 0 0 0 0 0 0 0 1 1 1 1 1
0 0 0 0 0 0 0 0 0 0 0 0 0 0 -0 -0 -0 0 0 0 0 -0 -0 -0 -0 0 0 0 0 0 0 0 -0 0 0 0 0 0 0 0 0 0 1 2
0 0 0 0 0 0 0 0 0 0 0 -0 0 -0 -0 -0 -0 -0 0 -0 -0 -0 -0 0 0 0 0 -0 -0 0 0 0 0 0 0 0 -0 -0 -0 -0 0 1 1 3
0 0 -0 0 0 0 0 0 0 -0 0 0 -0 -0 -0 -0 -0 -0 -0 -0 0 0 0 0 0 0 0 -0 -0 0 0 0 0 0 0 -0 -0 -0 -1 -1 0 1 2 3
0 0 0 0 0 0 0 -0 -0 -0 -0 0 0 0 0 -0 -0 -0 0 0 0 -0 0 0 0 0 -0 -0 -0 -0 -0 -0 -0 -0 -0 -0 -0 -1 -0 0 1 1 1 1
0 0 0 0 0 -0 -0 0 -0 -0 -0 -0 -0 -0 -0 -0 -0 -0 -0 -0 -0 -0 0 -0 -0 -0 0 0 -0 -0 -0 -0 -0 -0 -0 -0 -0 -0 0 0 1 1 1 1
0 0 0 0 -0 -0 0 0 -0 -0 -0 0 0 -0 -0 -0 0 -0 0 -0 -0 -0 -0 -0 -0 -0 -0 0 -0 0 0 -0 -0 0 -0 0 0 -0 0 0 0 1 1 1
0 0 -0 -0 -0 -0 -0 0 0 0 0 -0 -0 -0 -0 0 -0 -0 -0 -0 -0 -0 -0 -0 0 0 -0 -0 0 0 0 0 0 0 0 0 0 0 0 0 0 0 0 0
0 0 -0 -0 -0 0 0 0 0 0 0 0 0 0 -0 -0 0 -0 -0 -0 -0 0 -0 0 0 0 -0 -0 0 0 0 0 0 0 0 0 0 0 0 0 0 0 0 0
-0 0 0 0 -0 0 0 0 0 0 0 -0 0 0 -0 0 -0 0 0 0 0 0 0 0 0 0 0 0 0 0 -0 -0 0 0 0 0 0 0 0 0 0 0 0 0
-0 -0 -0 0 0 0 0 0 0 -0 -0 0 0 -0 -0 0 0 0 0 0 0 0 0 0 0 0 0 0 0 0 0 0 0 0 0 0 0 0 0 0 0 0 0 0
-0 -0 -0 0 0 0 0 0 0 -0 -0 -0 -0 0 0 0 0 0 0 0 0 0 0 0 0 0 -0 -0 -0 0 0 0 0 0 0 0 0 0 0 0 0 0 0 0
0 0 0 -0 0 0 0 0 0 -0 -0 0 0 0 -0 -0 0 0 0 0 0 0 0 0 0 0 0 0 0 0 0 0 0 0 0 0 0 0 0 0 0 0 0 0
0 0 -0 -0 -0 0 0 0 0 -0 -0 -0 -0 0 0 0 0 0 0 0 0 0 0 0 0 -0 0 0 0 0 0 0 0 0 0 0 0 0 0 0 0 0 0 0
0 -0 -0 -0 -0 0 -0 0 0 0 -0 -0 -0 -0 0 -0 0 0 0 0 0 0 0 0 0 0 0 -0 0 0 0 0 0 0 0 0 0 0 0 0 0 0 0 0
-0 -0 -0 -0 -0 -0 -0 -0 0 0 -0 -0 -0 -0 -0 0 0 0 -0 0 0 0 0 0 0 0 0 0 0 0 0 0 0 0 0 0 0 0 0 0 0 0 0 0
-0 -0 -0 -0 -0 -0 -0 -0 -0 0 0 -0 -0 -0 -0 -0 -0 0 0 0 0 -0 0 0 0 0 0 0 0 0 0 0 0 0 0 0 0 0 0 0 0 0 0 0
-0 -0 -0 -0 -0 -0 -0 -0 -0 -0 -0 -0 -0 -0 -0 0 0 0 0 -0 0 -0 0 0 0 0 0 0 0 0 0 0 0 0 0 0 0 0 0 0 0 0 0 0
-0 -0 -0 -0 -0 -0 -0 -0 -0 -0 -0 0 0 -0 -0 0 0 0 0 0 -0 -0 0 -0 -0 -0 0 0 0 0 0 0 0 0 0 0 0 0 0 0 0 0 0 0
-0 -0 -0 -0 -0 -0 0 0 -0 -0 0 0 0 0 0 0 0 0 0 -0 -0 -0 0 -0 -0 -0 0 0 0 0 0 0 0 0 0 0 0 0 0 0 0 0 0 0
0 -0 -0 -0 -0 -0 -0 -0 -0 -0 -0 0 0 0 0 0 0 0 0 -0 0 0 0 0 0 0 0 0 0 0 0 0 0 0 0 0 0 0 0 0 0 0 0 0
0 -0 -0 0 -0 -0 0 0 -0 -0 0 -0 0 0 0 -0 0 0 0 0 0 0 0 0 0 0 0 0 0 0 0 0 0 0 0 0 0 0 0 0 0 0 0 0
Wind_Speed_500mb
36 39 38 28 35 36 35 32 35 37 45 40 38 37 40 36 29 29 38 50 42 39 32 34 38 40 39 44 51 60 65 68 52 61 48 51 62 64 63 61 57 59 60 58
36 38 40 43 44 40 45 53 51 45 58 40 37 43 47 42 35 37 32 35 43 48 55 53 46 39 45 53 53 54 49 70 75 50 55 51 61 63 64 59 63 60 60 59
27 31 33 29 36 36 40 38 40 42 31 35 36 30 36 48 47 25 49 47 47 45 51 57 58 50 45 48 53 58 70 62 63 63 58 57 61 66 63 62 60 59 62 62
20 29 24 20 31 33 26 29 42 22 28 26 30 46 53 60 60 58 56 50 48 53 58 62 59 59 55 57 61 58 68 75 77 65 69 53 60 65 69 64 67 61 65 63
7 16 33 26 19 11 14 38 36 34 37 44 60 68 55 56 56 60 62 71 68 68 69 70 71 62 59 61 68 76 69 67 76 67 75 67 67 65 67 67 69 62 65 62
14 11 13 12 30 38 34 30 32 44 40 43 58 37 36 65 77 77 82 78 77 72 71 73 70 64 66 75 72 69 71 74 66 67 76 74 71 67 72 68 66 68 62 56
19 15 14 22 31 40 18 24 58 62 64 63 42 47 93 88 84 75 78 76 71 74 76 74 71 68 72 76 74 70 65 65 71 71 76 74 73 71 65 65 61 70 61 59
6 7 10 57 29 18 26 56 66 71 72 77 80 90 90 97 89 82 77 85 93 87 83 83 78 70 74 73 73 71 69 70 77 77 74 72 64 74 72 71 67 67 62 62
5 9 41 41 45 47 56 65 73 82 79 69 80 89 97 99 102 105 99 91 87 85 81 81 78 73 73 75 69 71 67 71 77 75 79 71 69 73 77 75 69 69 74 73
18 9 31 49 42 57 69 78 87 73 78 93 95 88 92 89 90 93 95 90 91 85 87 85 85 81 81 78 79 77 75 70 75 81 79 78 79 83 79 70 73 78 71 71
25 26 48 35 60 72 86 85 74 79 88 91 88 90 89 93 98 98 99 101 100 97 90 87 80 79 77 76 73 75 74 75 73 73 80 84 81 84 79 74 80 83 69 60
14 47 44 64 78 72 81 72 80 94 104 96 86 86 88 89 93 100 107 112 103 99 96 92 84 80 79 65 65 71 72 77 77 73 72 69 70 65 68 83 80 64 60 64
20 48 67 76 69 80 74 92 92 97 95 89 94 85 95 98 102 106 107 113 113 102 98 93 82 79 76 67 60 52 63 55 59 63 63 69 55 38 67 70 70 66 61 54
40 43 61 63 87 66 67 79 89 93 82 83 92 93 97 94 98 95 93 89 71 36 43 72 75 72 61 60 50 51 50 51 50 45 57 65 73 76 79 81 82 72 57 50
42 51 59 71 72 56 68 72 95 93 89 97 105 100 89 88 89 78 69 43 49 55 57 55 53 50 52 46 46 42 35 54 64 88 96 79 76 74 82 85 79 74 66 59
55 57 59 68 67 64 65 76 86 92 93 92 91 96 96 92 75 71 83 53 49 59 56 48 49 52 42 41 32 42 48 65 76 84 78 72 66 69 67 72 70 67 62 58
45 58 70 70 69 63 67 72 86 89 100 103 98 93 91 85 81 80 82 76 67 59 46 40 43 44 54 50 63 68 75 86 90 81 78 67 61 58 52 59 62 60 59 57
43 53 59 64 73 65 69 73 86 90 98 92 89 88 95 91 88 81 79 79 66 45 33 31 41 32 38 57 67 74 84 72 74 73 62 56 55 53 54 63 66 70 64 59
41 49 54 59 69 71 68 66 79 93 112 107 102 95 84 84 85 80 83 66 70 73 58 29 40 58 54 49 64 67 63 55 63 61 71 69 65 59 59 64 68 61 51 45
40 44 50 56 61 66 67 64 72 83 103 108 102 99 97 85 82 82 78 79 70 56 44 43 49 56 61 63 52 49 57 61 67 68 65 60 56 51 52 67 64 62 57 55
41 45 49 52 60 60 63 62 68 73 93 101 103 100 88 83 75 77 74 74 65 32 36 38 40 44 51 52 51 57 54 62 62 59 55 58 59 59 67 67 62 59 52 57
43 42 45 48 52 56 61 59 63 64 78 100 100 104 100 93 85 70 67 60 53 52 34 42 45 38 36 40 43 50 59 61 63 64 59 58 56 61 64 61 58 56 55 53
42 40 42 44 50 52 53 57 61 67 64 85 94 101 103 88 82 82 72 58 44 42 48 46 37 30 29 32 44 55 58 62 58 59 55 49 60 59 57 61 61 58 54 53
36 38 43 47 40 43 56 60 67 60 62 64 82 88 95 97 83 71 62 56 42 32 36 31 26 22 22 30 44 49 52 58 53 54 52 65 58 59 56 59 59 56 54 54
34 35 38 50 50 47 47 53 58 59 62 60 71 75 84 88 85 70 67 59 43 40 37 29 23 24 32 33 37 47 54 56 55 58 64 65 61 61 59 58 60 57 53 51
35 36 34 35 44 54 44 45 57 59 54 61 59 72 72 79 88 82 71 61 56 46 37 31 28 29 32 33 33 38 42 49 59 68 67 67 63 56 59 56 60 58 51 47
35 41 38 37 38 47 56 48 44 60 56 54 49 56 55 64 72 82 80 72 65 54 44 32 25 22 26 31 34 38 44 47 57 62 57 59 59 57 57 56 50 46 46 51
Wind_Direction_500mb
288 293 291 206 252 262 268 265 264 268 264 266 276 289 288 287 344 345 324 314 319 289 269 277 282 283 286 283 277 283 273 276 275 256 255 259 264 266 261 256 254 257 246 244
290 289 283 272 280 281 262 250 248 239 250 271 342 331 331 330 338 324 285 288 296 297 295 292 288 284 280 279 276 274 272 264 260 270 257 257 262 264 261 257 247 248 247 243
285 290 312 288 271 264 278 296 264 271 329 333 331 318 315 319 320 286 284 299 303 302 290 281 281 280 281 279 272 266 262 261 265 247 262 254 260 262 257 255 257 254 245 241
286 294 280 273 18 22 344 322 331 334 331 302 312 310 306 302 299 297 298 302 300 297 291 287 290 280 275 273 269 270 268 263 259 245 264 263 263 258 255 251 252 254 246 240
265 284 292 303 23 0 352 303 308 353 334 326 323 313 293 291 291 304 308 304 295 290 288 286 276 271 274 271 271 266 261 257 257 245 261 265 268 265 257 253 255 250 241 236
297 302 299 55 355 348 310 280 356 335 326 323 322 304 298 309 304 300 296 289 289 286 282 278 276 270 270 264 259 260 255 256 252 247 251 260 263 265 263 253 247 243 235 227
247 251 265 12 348 333 301 327 332 320 313 313 305 299 302 300 295 294 292 294 292 288 280 276 275 272 264 258 256 251 250 255 252 251 256 255 265 262 255 251 250 240 226 212
301 282 283 359 354 353 302 312 324 319 315 309 307 304 301 300 299 296 292 291 288 282 278 277 274 269 261 257 256 256 258 252 246 253 252 254 263 258 254 253 246 230 211 197
313 300 316 339 333 326 322 319 318 313 310 316 310 304 299 297 295 294 290 286 282 277 270 269 269 262 258 259 259 258 258 252 245 246 245 257 252 256 250 250 233 208 193 175
337 310 327 323 324 322 323 316 312 315 319 317 305 299 295 291 292 288 286 281 282 276 265 265 265 261 257 258 259 259 255 249 243 243 247 247 250 251 251 239 207 193 180 182
290 295 337 311 320 322 314 315 316 319 318 311 305 301 298 294 293 291 287 282 276 269 263 258 254 253 253 253 252 249 246 244 242 243 245 252 247 252 248 212 190 174 170 178
285 310 305 302 308 315 317 328 333 322 315 313 310 306 304 298 295 291 287 285 273 263 256 250 245 241 245 240 242 237 237 241 242 245 249 247 240 237 214 193 173 170 162 164
283 295 299 303 317 316 316 330 323 318 317 313 312 308 310 308 311 309 299 290 280 268 252 238 233 231 231 225 237 243 236 244 243 247 253 183 171 200 153 142 145 150 153 155
309 317 318 318 316 327 328 326 326 326 324 321 321 325 322 316 313 306 307 319 317 291 247 212 210 214 214 219 222 232 229 238 235 204 147 158 159 163 142 145 145 147 149 155
324 323 313 316 323 332 338 337 333 335 334 332 338 332 328 328 328 336 353 27 50 80 113 151 169 188 196 199 224 234 210 185 148 138 140 132 127 121 135 138 134 133 137 143
320 319 320 318 331 343 345 341 338 336 341 336 338 341 342 347 358 21 42 55 71 90 102 122 142 143 168 202 196 174 187 140 128 130 128 123 124 135 136 137 137 139 142 145
324 320 323 335 343 351 352 350 345 343 345 345 349 352 355 6 31 39 48 60 74 80 94 115 132 155 143 158 167 129 126 130 128 125 128 130 134 134 138 144 140 141 139 141
328 328 334 343 342 354 355 348 349 350 353 351 355 2 12 20 18 31 38 49 75 78 73 119 144 133 132 123 132 135 136 129 128 125 119 120 120 128 133 138 137 137 139 145
341 339 343 347 349 351 359 353 353 353 4 7 8 12 11 20 29 38 46 49 57 69 74 91 142 134 130 137 134 129 124 120 122 118 123 132 137 140 142 147 146 143 143 146
345 348 349 347 350 353 2 358 360 358 7 14 12 16 21 22 31 38 47 47 48 38 60 100 110 120 114 124 116 124 121 125 126 128 137 138 140 139 145 150 149 146 145 147
351 349 350 348 348 352 359 3 5 0 3 17 16 17 21 24 29 35 42 44 53 51 60 95 99 97 117 128 128 122 125 130 130 135 134 141 144 145 146 150 152 155 151 151
356 348 346 346 349 352 356 5 11 7 358 13 18 20 24 26 28 35 33 31 40 63 77 91 93 103 126 112 119 137 141 137 138 141 144 147 149 151 153 153 151 150 149 149
353 351 347 347 350 350 354 359 5 12 7 5 17 17 23 26 25 23 22 26 32 59 82 99 103 113 127 120 129 137 144 140 133 144 146 142 143 144 147 149 147 149 150 150
347 351 347 355 355 357 359 356 1 9 13 8 9 17 17 20 27 27 25 27 28 52 73 75 71 72 102 131 143 146 146 144 149 149 145 138 139 148 148 150 151 150 153 152
354 353 351 357 2 357 354 354 358 6 7 10 6 13 15 22 26 24 27 27 26 50 68 90 93 103 122 133 146 151 152 152 148 146 147 149 148 157 160 155 155 155 156 153
3 2 0 358 353 2 357 1 359 2 8 9 9 8 12 18 25 28 31 30 29 40 58 74 95 113 125 134 145 155 158 161 161 157 156 161 166 165 166 161 160 162 162 158
8 5 9 3 359 354 2 4 356 1 4 7 6 8 7 12 22 26 30 32 32 33 40 52 72 101 124 135 143 151 161 166 166 165 169 169 173 172 165 161 160 161 161 160
Wind_Speed_850mb
36 39 38 28 35 36 35 32 35 37 45 40 38 37 40 36 29 29 38 50 42 39 32 34 38 40 39 44 51 60 65 68 52 61 48 51 62 64 63 61 57 59 60 58
36 38 40 43 44 40 45 53 51 45 58 40 37 43 47 42 35 37 32 35 43 48 55 53 46 39 45 53 53 54 49 70 75 50 55 51 61 63 64 59 63 60 60 59
27 31 33 29 36 36 40 38 40 42 31 35 36 30 36 48 47 25 49 47 47 45 51 57 58 50 45 48 53 58 70 62 63 63 58 57 61 66 63 62 60 59 62 62
20 29 24 20 31 33 26 29 42 22 28 26 30 46 53 60 60 58 56 50 48 53 58 62 59 59 55 57 61 58 68 75 77 65 69 53 60 65 69 64 67 61 65 63
7 16 33 26 19 11 14 38 36 34 37 44 60 68 55 56 56 60 62 71 68 68 69 70 71 62 59 61 68 76 69 67 76 67 75 67 67 65 67 67 69 62 65 62
14 11 13 12 30 38 34 30 32 44 40 43 58 37 36 65 77 77 82 78 77 72 71 73 70 64 66 75 72 69 71 74 66 67 76 74 71 67 72 68 66 68 62 56
19 15 14 22 31 40 18 24 58 62 64 63 42 47 93 88 84 75 78 76 71 74 76 74 71 68 72 76 74 70 65 65 71 71 76 74 73 71 65 65 61 70 61 59
6 7 10 57 29 18 26 56 66 71 72 77 80 90 90 97 89 82 77 85 93 87 83 83 78 70 74 73 73 71 69 70 77 77 74 72 64 74 72 71 67 67 62 62
5 9 41 41 45 47 56 65 73 82 79 69 80 89 97 99 102 105 99 91 87 85 81 81 78 73 73 75 69 71 67 71 77 75 79 71 69 73 77 75 69 69 74 73
18 9 31 49 42 57 69 78 87 73 78 93 95 88 92 89 90 93 95 90 91 85 87 85 85 81 81 78 79 77 75 70 75 81 79 78 79 83 79 70 73 78 71 71
25 26 48 35 60 72 86 85 74 79 88 91 88 90 89 93 98 98 99 101 100 97 90 87 80 79 77 76 73 75 74 75 73 73 80 84 81 84 79 74 80 83 69 60
14 47 44 64 78 72 81 72 80 94 104 96 86 86 88 89 93 100 107 112 103 99 96 92 84 80 79 65 65 71 72 77 77 73 72 69 70 65 68 83 80 64 60 64
20 48 67 76 69 80 74 92 92 97 95 89 94 85 95 98 102 106 107 113 113 102 98 93 82 79 76 67 60 52 63 55 59 63 63 69 55 38 67 70 70 66 61 54
40 43 61 63 87 66 67 79 89 93 82 83 92 93 97 94 98 95 93 89 71 36 43 72 75 72 61 60 50 51 50 51 50 45 57 65 73 76 79 81 82 72 57 50
42 51 59 71 72 56 68 72 95 93 89 97 105 100 89 88 89 78 69 43 49 55 57 55 53 50 52 46 46 42 35 54 64 88 96 79 76 74 82 85 79 74 66 59
55 57 59 68 67 64 65 76 86 92 93 92 91 96 96 92 75 71 83 53 49 59 56 48 49 52 42 41 32 42 48 65 76 84 78 72 66 69 67 72 70 67 62 58
45 58 70 70 69 63 67 72 86 89 100 103 98 93 91 85 81 80 82 76 67 59 46 40 43 44 54 50 63 68 75 86 90 81 78 67 61 58 52 59 62 60 59 57
43 53 59 64 73 65 69 73 86 90 98 92 89 88 95 91 88 81 79 79 66 45 33 31 41 32 38 57 67 74 84 72 74 73 62 56 55 53 54 63 66 70 64 59
41 49 54 59 69 71 68 66 79 93 112 107 102 95 84 84 85 80 83 66 70 73 58 29 40 58 54 49 64 67 63 55 63 61 71 69 65 59 59 64 68 61 51 45
40 44 50 56 61 66 67 64 72 83 103 108 102 99 97 85 82 82 78 79 70 56 44 43 49 56 61 63 52 49 57 61 67 68 65 60 56 51 52 67 64 62 57 55
41 45 49 52 60 60 63 62 68 73 93 101 103 100 88 83 75 77 74 74 65 32 36 38 40 44 51 52 51 57 54 62 62 59 55 58 59 59 67 67 62 59 52 57
43 42 45 48 52 56 61 59 63 64 78 100 100 104 100 93 85 70 67 60 53 52 34 42 45 38 36 40 43 50 59 61 63 64 59 58 56 61 64 61 58 56 55 53
42 40 42 44 50 52 53 57 61 67 64 85 94 101 103 88 82 82 72 58 44 42 48 46 37 30 29 32 44 55 58 62 58 59 55 49 60 59 57 61 61 58 54 53
36 38 43 47 40 43 56 60 67 60 62 64 82 88 95 97 83 71 62 56 42 32 36 31 26 22 22 30 44 49 52 58 53 54 52 65 58 59 56 59 59 56 54 54
34 35 38 50 50 47 47 53 58 59 62 60 71 75 84 88 85 70 67 59 43 40 37 29 23 24 32 33 37 47 54 56 55 58 64 65 61 61 59 58 60 57 53 51
35 36 34 35 44 54 44 45 57 59 54 61 59 72 72 79 88 82 71 61 56 46 37 31 28 29 32 33 33 38 42 49 59 68 67 67 63 56 59 56 60 58 51 47
35 41 38 37 38 47 56 48 44 60 56 54 49 56 55 64 72 82 80 72 65 54 44 32 25 22 26 31 34 38 44 47 57 62 57 59 59 57 57 56 50 46 46 51
Wind_Direction_850mb
288 293 291 206 252 262 268 265 264 268 264 266 276 289 288 287 344 345 324 314 319 289 269 277 282 283 286 283 277 283 273 276 275 256 255 259 264 266 261 256 254 257 246 244
290 289 283 272 280 281 262 250 248 239 250 271 342 331 331 330 338 324 285 288 296 297 295 292 288 284 280 279 276 274 272 264 260 270 257 257 262 264 261 257 247 248 247 243
285 290 312 288 271 264 278 296 264 271 329 333 331 318 315 319 320 286 284 299 303 302 290 281 281 280 281 279 272 266 262 261 265 247 262 254 260 262 257 255 257 254 245 241
286 294 280 273 18 22 344 322 331 334 331 302 312 310 306 302 299 297 298 302 300 297 291 287 290 280 275 273 269 270 268 263 259 245 264 263 263 258 255 251 252 254 246 240
265 284 292 303 23 0 352 303 308 353 334 326 323 313 293 291 291 304 308 304 295 290 288 286 276 271 274 271 271 266 261 257 257 245 261 265 268 265 257 253 255 250 241 236
297 302 299 55 355 348 310 280 356 335 326 323 322 304 298 309 304 300 296 289 289 286 282 278 276 270 270 264 259 260 255 256 252 247 251 260 263 265 263 253 247 243 235 227
247 251 265 12 348 333 301 327 332 320 313 313 305 299 302 300 295 294 292 294 292 288 280 276 275 272 264 258 256 251 250 255 252 251 256 255 265 262 255 251 250 240 226 212
301 282 283 359 354 353 302 312 324 319 315 309 307 304 301 300 299 296 292 291 288 282 278 277 274 269 261 257 256 256 258 252 246 253 252 254 263 258 254 253 246 230 211 197
313 300 316 339 333 326 322 319 318 313 310 316 310 304 299 297 295 294 290 286 282 277 270 269 269 262 258 259 259 258 258 252 245 246 245 257 252 256 250 250 233 208 193 175
337 310 327 323 324 322 323 316 312 315 319 317 305 299 295 291 292 288 286 281 282 276 265 265 265 261 257 258 259 259 255 249 243 243 247 247 250 251 251 239 207 193 180 182
290 295 337 311 320 322 314 315 316 319 318 311 305 301 298 294 293 291 287 282 276 269 263 258 254 253 253 253 252 249 246 244 242 243 245 252 247 252 248 212 190 174 170 178
285 310 305 302 308 315 317 328 333 322 315 313 310 306 304 298 295 291 287 285 273 263 256 250 245 241 245 240 242 237 237 241 242 245 249 247 240 237 214 193 173 170 162 164
283 295 299 303 317 316 316 330 323 318 317 313 312 308 310 308 311 309 299 290 280 268 252 238 233 231 231 225 237 243 236 244 243 247 253 183 171 200 153 142 145 150 153 155
309 317 318 318 316 327 328 326 326 326 324 321 321 325 322 316 313 306 307 319 317 291 247 212 210 214 214 219 222 232 229 238 235 204 147 158 159 163 142 145 145 147 149 155
324 323 313 316 323 332 338 337 333 335 334 332 338 332 328 328 328 336 353 27 50 80 113 151 169 188 196 199 224 234 210 185 148 138 140 132 127 121 135 138 134 133 137 143
320 319 320 318 331 343 345 341 338 336 341 336 338 341 342 347 358 21 42 55 71 90 102 122 142 143 168 202 196 174 187 140 128 130 128 123 124 135 136 137 137 139 142 145
324 320 323 335 343 351 352 350 345 343 345 345 349 352 355 6 31 39 48 60 74 80 94 115 132 155 143 158 167 129 126 130 128 125 128 130 134 134 138 144 140 141 139 141
328 328 334 343 342 354 355 348 349 350 353 351 355 2 12 20 18 31 38 49 75 78 73 119 144 133 132 123 132 135 136 129 128 125 119 120 120 128 133 138 137 137 139 145
341 339 343 347 349 351 359 353 353 353 4 7 8 12 11 20 29 38 46 49 57 69 74 91 142 134 130 137 134 129 124 120 122 118 123 132 137 140 142 147 146 143 143 146
345 348 349 347 350 353 2 358 360 358 7 14 12 16 21 22 31 38 47 47 48 38 60 100 110 120 114 124 116 124 121 125 126 128 137 138 140 139 145 150 149 146 145 147
351 349 350 348 348 352 359 3 5 0 3 17 16 17 21 24 29 35 42 44 53 51 60 95 99 97 117 128 128 122 125 130 130 135 134 141 144 145 146 150 152 155 151 151
356 348 346 346 349 352 356 5 11 7 358 13 18 20 24 26 28 35 33 31 40 63 77 91 93 103 126 112 119 137 141 137 138 141 144 147 149 151 153 153 151 150 149 149
353 351 347 347 350 350 354 359 5 12 7 5 17 17 23 26 25 23 22 26 32 59 82 99 103 113 127 120 129 137 144 140 133 144 146 142 143 144 147 149 147 149 150 150
347 351 347 355 355 357 359 356 1 9 13 8 9 17 17 20 27 27 25 27 28 52 73 75 71 72 102 131 143 146 146 144 149 149 145 138 139 148 148 150 151 150 153 152
354 353 351 357 2 357 354 354 358 6 7 10 6 13 15 22 26 24 27 27 26 50 68 90 93 103 122 133 146 151 152 152 148 146 147 149 148 157 160 155 155 155 156 153
3 2 0 358 353 2 357 1 359 2 8 9 9 8 12 18 25 28 31 30 29 40 58 74 95 113 125 134 145 155 158 161 161 157 156 161 166 165 166 161 160 162 162 158
8 5 9 3 359 354 2 4 356 1 4 7 6 8 7 12 22 26 30 32 32 33 40 52 72 101 124 135 143 151 161 166 166 165 169 169 173 172 165 161 160 161 161 160